Home   Weather   Fairfield   Past weeks
Flag for Ireland

Past Weather in Fairfield, Ireland — Yesterday and Last 2 Weeks

Now
48 °F

Cool.


Feels Like: 46 °F
Forecast: N/A
Wind: 5 mph from West

Location: Mullingar

Current Time: Dec 6, 2019 at 4:45:15 pm

Latest Report: Dec 6, 2019 at 3:00 pm


Visibility: 15 mi

Pressure: 29.61 "Hg

Humidity: 85%

Dew Point: 44 °F

Location of FairfieldLocation

Past Weather in Fairfield — Graph

°F

Fairfield Temperature Yesterday

Maximum temperature yesterday: 53 °F (at 10:00 pm)
Minimum temperature yesterday: 39 °F (at 4:00 am)
Average temperature yesterday: 47 °F

High & Low Weather Summary for the Past Weeks

 TemperatureHumidityPressure
High53 °F (Dec 5, 10:00 pm)99% (Nov 24, 6:00 am)30.55 "Hg (Nov 24, 6:00 am)
Low29 °F (Dec 3, 8:00 am)71% (Nov 29, 11:00 am)28.85 "Hg (Nov 26, 2:00 pm)
Average43 °F92%29.72 "Hg
* Reported Nov 21 3:00 pm — Dec 6 3:00 pm, Fairfield. Weather by CustomWeather, © 2019

Note: Actual official high and low records may vary slightly from our data, if they occured in-between our weather recording intervals... More about our weather records

Fairfield Weather History for the Previous 24 Hours

Scroll right to see more
 ConditionsComfort  
Time TempWeatherWind HumidityBarometerVisibility
3:00 pm
Fri, Dec 6
48 °FCool.5 mph85%29.61 "Hg15 mi
2:00 pm49 °FCool.6 mph82%29.58 "Hg17 mi
1:00 pm48 °FCool.5 mph85%29.56 "Hg19 mi
12:00 pm48 °FCool.6 mph86%29.53 "Hg28 mi
11:00 am47 °FCool.6 mph90%29.50 "Hg14 mi
10:00 am49 °FCool.6 mph89%29.50 "Hg12 mi
9:00 am49 °FCool.5 mph89%29.47 "Hg17 mi
8:00 am49 °FCool.7 mph91%29.47 "Hg19 mi
7:00 am49 °FCool.6 mph90%29.50 "Hg14 mi
6:00 am49 °FCool.5 mph90%29.50 "Hg15 mi
5:00 am51 °FCool.5 mph95%29.50 "Hg2 mi
4:00 am52 °FCool.6 mph96%29.50 "Hg2 mi
3:00 am52 °FCool.6 mph96%29.55 "Hg3 mi
2:00 am52 °FCool.6 mph96%29.57 "Hg3 mi
1:00 am52 °FCool.6 mph97%29.59 "Hg2 mi
11:00 pm
Thu, Dec 5
53 °FCool.5 mph95%29.62 "Hg6 mi
10:00 pm53 °FCool.6 mph95%29.63 "Hg6 mi
9:00 pm53 °FFog.6 mph96%29.65 "Hg3 mi
8:00 pm53 °FCool.7 mph95%29.65 "Hg3 mi
7:00 pm52 °FCool.7 mph95%29.66 "Hg2 mi
6:00 pm52 °FDrizzle. Overcast.8 mph94%29.67 "Hg4 mi
5:00 pm52 °FCool.8 mph94%29.66 "Hg4 mi
4:00 pm53 °FCool.9 mph94%29.67 "Hg4 mi
Weather by CustomWeather, © 2019

See weather overview

Advertising